SCOUT B R/B, 2206

Orbit data source: Space-Track

SCOUT B R/B, 2206 is space debris in LEO originally from a launch on Fri, 10 Jun 1966 UTC launched from the Wallops Island (WLPIS). Debris objects in space refer to the collection of defunct objects orbiting the Earth. Examples of debris include non-operational satellites, rocket bodies, and fragments generated from explosions, collisions, or faulty payload assembly.

Loading next visibility...
Identifier
2206, 1966-052B
Orbit
LEO
Country
Flag of USUS
Related business
Manufacturer
UTC
Mission
Spacecraft
Bus & Motor
FW4, Unknown motor
Mass
47 kg wet, 47 kg dry
Launch date (UTC)
1966-06-10 (60 years ago)
Launch vehicle
Unknown
Launch site
Wallops Island (WLPIS)
Object type
Payload
Rocket body
Debris
Shape & HBR
Unknown
Radar Cross Section
Medium (>0.1 m² and <1 m²)

Expand to show TLE details & history
Last TLE update: 10 hours ago

TLE from 10 hours ago
0 SCOUT B R/B
1 02206U 66052B   26104.23321493  .00000282  00000-0  43213-3 0  9997
2 02206  40.8564 197.4488 2212809 180.2804 179.6633 10.14620525196284
Epoch: 2026-04-14T05:35Z
TLE epoch observation values (Epoch: 2026-04-14T05:35:49.769Z)
Latitude
-0.00003°
Longitude
-88.92102°
Altitude
4,628.559 km
Speed
5.313 km/s
True Right ascension
13h 09m 47s
True Declination
0° 00' 00"
Sunlit
Object was in full shadow at epoch
Visualization orbit readout
Latitude
Unknown
Longitude
Unknown
Altitude
Unknown
Speed
Unknown
Apparent Right ascension
Unknown
Apparent Declination
Unknown
Sunlit
N/A
Visualization observer readout
Local Sidereal Time
21:49:56
Azimuth
Unknown
Elevation
Unknown
Doppler factor
Unknown
Orbital elements
Apogee altitude
4,631.496 km
Perigee altitude
641.879 km
Semi-major axis
9,014.824 km
Eccentricity
0.22128
Inclination
40.8564°
RAAN
197.4488°
Arg. of periapsis
180.2804°
True anomaly
179.77985°
Mean anomaly
179.6633°
Eccentric anomaly
179.72431°
Mean motion
2.53575 °/min
Orbital period
141.97 mins
BSTAR
0.00043213
Loading maneuver chart data...
Computing Atmospheric mass density...
Loading historical data...
Loading historical data...
Loading historical data...
Loading historical data...
Loading historical data...
Loading historical data...
Loading historical data...
Other satellites on launch #52 in the year 1966 (1966-06-10 UTC)

Documentation

Showing up to 5 results
|